Location: T. Spence Memorial Observatory
(32.7356°N, 82.2098°W)
Time: 22:00:44
(UTC-04:00)

Cosmos 2219 - Visible Passes

Search period start: 24 September 2016 00:00
Search period end: 04 October 2016 00:00
Orbit: 836 x 858 km, 71.1° (Epoch: 23 September)

Date Brightness Start Highest point End Pass type
(mag) Time Alt. Az. Time Alt. Az. Time Alt. Az.
24 Sep 4.9 04:30:45 26° NNE 04:30:45 26° NNE 04:33:07 10° NNE visible
25 Sep 5.3 04:18:02 20° NNE 04:18:02 20° NNE 04:19:41 10° NNE visible
26 Sep 5.6 04:05:17 15° NNE 04:05:17 15° NNE 04:06:14 10° NNE visible
27 Sep 5.9 03:52:28 12° NNE 03:52:28 12° NNE 03:52:48 10° NNE visible
